User: anonymous   Login
Location: Unspecified
(0.0000°N, 0.0000°E)
Time: 05:45:24
(UTC+00:00)
Language:

STARLINK-30975 - Orbit

View from above orbital plane
View from above orbital plane
View from above satellite
View from above satellite

Ground track
Ground track

The orbit is defined by the following mean orbital elements,

1 58446U          26145.23727432 +.00000000 +00000-0 +41471-4 0 00009
2 58446  43.0040 329.1101 0001399 286.4375  73.6323 15.27578761    07
Epoch (UTC): 25 May 2026 05:41:40
Eccentricity: 0.0001399
inclination: 43.0040°
perigee height: 482 km
apogee height: 484 km
right ascension of ascending node: 329.1101°
argument of perigee: 286.4375°
revolutions per day: 15.27578761
mean anomaly at epoch: 73.6323°

The dashed part of the orbit path shows where the satellite is in the earth's shadow,  

DLR